TimeCDT,TemperatureF,Dew PointF,Humidity,Sea Level PressureIn,VisibilityMPH,Wind Direction,Wind SpeedMPH,Gust SpeedMPH,PrecipitationIn,Events,Conditions,WindDirDegrees,DateUTC
12:15 AM,73.4,65.3,76,29.99,7.0,SSE,5.8,-,N/A,,Clear,150,2012-10-06 05:15:00
12:35 AM,71.8,64.8,78,29.99,10.0,SSE,4.6,-,N/A,,Clear,160,2012-10-06 05:35:00
12:55 AM,71.2,64.4,79,29.99,7.0,SSE,3.5,-,N/A,,Clear,150,2012-10-06 05:55:00
1:15 AM,70.7,64.4,80,29.98,10.0,Calm,Calm,-,N/A,,Clear,0,2012-10-06 06:15:00
1:55 AM,70.7,64.4,80,29.97,7.0,Calm,Calm,-,N/A,,Clear,0,2012-10-06 06:55:00
2:15 AM,68.7,63.3,83,29.97,7.0,Calm,Calm,-,N/A,,Clear,0,2012-10-06 07:15:00
2:35 AM,67.8,62.2,82,29.97,7.0,Calm,Calm,-,N/A,,Clear,0,2012-10-06 07:35:00
2:55 AM,67.5,63.1,86,29.96,7.0,Calm,Calm,-,N/A,,Clear,0,2012-10-06 07:55:00
3:15 AM,67.3,63.3,87,29.95,7.0,Calm,Calm,-,N/A,,Clear,0,2012-10-06 08:15:00
3:35 AM,67.1,63.3,88,29.94,7.0,SSE,3.5,-,N/A,,Clear,150,2012-10-06 08:35:00
3:55 AM,66.2,62.6,88,29.94,7.0,SE,5.8,-,N/A,,Clear,140,2012-10-06 08:55:00
4:15 AM,65.8,62.2,88,29.94,7.0,South,3.5,-,N/A,,Clear,170,2012-10-06 09:15:00
4:35 AM,67.3,63.1,87,29.94,7.0,South,3.5,-,N/A,,Clear,180,2012-10-06 09:35:00
4:55 AM,67.1,63.3,88,29.94,7.0,Calm,Calm,-,N/A,,Clear,0,2012-10-06 09:55:00
5:15 AM,67.3,63.5,88,29.94,7.0,Calm,Calm,-,N/A,,Clear,0,2012-10-06 10:15:00
5:35 AM,66.7,62.8,87,29.95,7.0,Calm,Calm,-,N/A,,Clear,0,2012-10-06 10:35:00
5:55 AM,66.6,62.2,86,29.96,7.0,NNE,3.5,-,N/A,,Clear,20,2012-10-06 10:55:00
6:15 AM,65.3,61.0,86,29.96,7.0,Calm,Calm,-,N/A,,Clear,0,2012-10-06 11:15:00
6:35 AM,65.1,61.2,87,29.96,7.0,Calm,Calm,-,N/A,,Clear,0,2012-10-06 11:35:00
6:55 AM,64.8,61.0,88,29.97,7.0,Calm,Calm,-,N/A,,Clear,0,2012-10-06 11:55:00
7:15 AM,64.8,61.0,88,29.97,7.0,NE,3.5,-,N/A,,Clear,40,2012-10-06 12:15:00
7:35 AM,64.8,61.0,88,29.97,5.0,East,3.5,-,N/A,,Clear,80,2012-10-06 12:35:00
7:55 AM,63.5,59.9,88,29.97,5.0,Calm,Calm,-,N/A,,Clear,0,2012-10-06 12:55:00
8:15 AM,66.4,62.2,86,29.98,5.0,Calm,Calm,-,N/A,,Clear,0,2012-10-06 13:15:00
8:35 AM,69.3,64.2,84,29.98,5.0,Calm,Calm,-,N/A,,Haze,0,2012-10-06 13:35:00
9:15 AM,75.4,66.2,73,29.99,5.0,East,3.5,-,N/A,,Haze,80,2012-10-06 14:15:00
9:35 AM,78.6,66.4,66,29.99,7.0,East,4.6,-,N/A,,Clear,90,2012-10-06 14:35:00
9:55 AM,80.6,66.6,62,29.99,7.0,ESE,5.8,-,N/A,,Clear,110,2012-10-06 14:55:00
10:15 AM,82.2,66.7,59,29.99,7.0,ESE,6.9,-,N/A,,Clear,120,2012-10-06 15:15:00
10:35 AM,83.3,66.7,57,29.99,7.0,SSE,8.1,-,N/A,,Clear,150,2012-10-06 15:35:00
10:55 AM,84.6,66.2,54,29.99,7.0,SE,10.4,16.1,N/A,,Clear,140,2012-10-06 15:55:00
11:15 AM,85.8,64.8,49,29.99,7.0,South,8.1,-,N/A,,Clear,170,2012-10-06 16:15:00
11:35 AM,86.0,63.1,46,29.99,7.0,SE,6.9,-,N/A,,Scattered Clouds,130,2012-10-06 16:35:00
11:55 AM,87.6,63.5,44,29.98,7.0,South,9.2,-,N/A,,Clear,170,2012-10-06 16:55:00
12:15 PM,88.0,63.1,43,29.98,7.0,SE,3.5,-,N/A,,Clear,140,2012-10-06 17:15:00
12:35 PM,88.9,61.7,40,29.97,7.0,South,6.9,-,N/A,,Clear,190,2012-10-06 17:35:00
12:55 PM,89.8,62.8,40,29.96,7.0,ESE,9.2,-,N/A,,Clear,110,2012-10-06 17:55:00
1:15 PM,90.7,60.1,36,29.95,7.0,SSE,9.2,-,N/A,,Scattered Clouds,160,2012-10-06 18:15:00
1:35 PM,91.6,59.5,34,29.93,7.0,East,5.8,16.1,N/A,,Clear,90,2012-10-06 18:35:00
1:55 PM,90.9,59.2,34,29.92,7.0,ESE,4.6,-,N/A,,Clear,120,2012-10-06 18:55:00
2:15 PM,92.8,58.6,32,29.90,5.0,ESE,9.2,-,N/A,,Haze,110,2012-10-06 19:15:00
2:35 PM,93.4,57.0,29,29.90,7.0,South,8.1,18.4,N/A,,Clear,170,2012-10-06 19:35:00
2:55 PM,93.9,56.7,28,29.88,7.0,South,8.1,-,N/A,,Clear,170,2012-10-06 19:55:00
3:15 PM,94.8,57.0,28,29.88,10.0,SSE,11.5,-,N/A,,Clear,160,2012-10-06 20:15:00
3:35 PM,95.2,55.8,27,29.87,10.0,SE,11.5,23.0,N/A,,Clear,140,2012-10-06 20:35:00
3:55 PM,95.4,56.8,27,29.87,7.0,East,11.5,-,N/A,,Scattered Clouds,100,2012-10-06 20:55:00
4:15 PM,95.4,57.6,28,29.86,7.0,ESE,6.9,10.4,N/A,,Scattered Clouds,110,2012-10-06 21:15:00
4:35 PM,95.0,56.3,27,29.86,7.0,SE,11.5,-,N/A,,Scattered Clouds,140,2012-10-06 21:35:00
4:55 PM,93.9,56.1,28,29.86,10.0,SSE,10.4,-,N/A,,Scattered Clouds,160,2012-10-06 21:55:00
5:15 PM,95.0,57.9,29,29.86,7.0,East,16.1,19.6,N/A,,Scattered Clouds,100,2012-10-06 22:15:00
5:35 PM,92.3,64.6,40,29.85,7.0,East,18.4,23.0,N/A,,Mostly Cloudy,100,2012-10-06 22:35:00
6:15 PM,89.2,66.2,46,29.87,7.0,East,18.4,-,N/A,,Clear,90,2012-10-06 23:15:00
6:35 PM,88.3,66.2,48,29.87,10.0,East,18.4,25.3,N/A,,Scattered Clouds,90,2012-10-06 23:35:00
6:55 PM,87.6,66.2,49,29.88,7.0,East,16.1,21.9,N/A,,Clear,100,2012-10-06 23:55:00
7:15 PM,86.0,66.4,52,29.89,7.0,East,13.8,-,N/A,,Clear,90,2012-10-07 00:15:00
7:35 PM,85.1,66.6,54,29.90,10.0,East,11.5,-,N/A,,Clear,90,2012-10-07 00:35:00
7:55 PM,84.2,66.6,55,29.90,7.0,East,13.8,-,N/A,,Clear,90,2012-10-07 00:55:00
8:15 PM,83.5,66.9,57,29.91,7.0,East,12.7,-,N/A,,Clear,100,2012-10-07 01:15:00
8:35 PM,82.8,67.1,59,29.92,10.0,East,11.5,-,N/A,,Clear,90,2012-10-07 01:35:00
8:55 PM,82.0,67.1,60,29.93,10.0,East,10.4,-,N/A,,Clear,100,2012-10-07 01:55:00
9:15 PM,81.5,67.5,62,29.94,10.0,East,8.1,-,N/A,,Clear,90,2012-10-07 02:15:00
9:35 PM,80.6,68.0,65,29.94,10.0,ESE,6.9,-,N/A,,Clear,110,2012-10-07 02:35:00
9:55 PM,79.9,68.0,67,29.95,7.0,ESE,5.8,-,N/A,,Clear,110,2012-10-07 02:55:00
10:15 PM,79.0,68.2,69,29.95,10.0,East,4.6,-,N/A,,Clear,100,2012-10-07 03:15:00
10:35 PM,78.1,68.2,71,29.95,10.0,East,4.6,-,N/A,,Clear,100,2012-10-07 03:35:00
10:55 PM,77.5,68.2,73,29.96,10.0,East,3.5,-,N/A,,Clear,100,2012-10-07 03:55:00
11:15 PM,76.3,68.0,75,29.96,10.0,East,3.5,-,N/A,,Clear,100,2012-10-07 04:15:00
11:35 PM,75.4,67.5,76,29.96,10.0,ENE,3.5,-,N/A,,Clear,70,2012-10-07 04:35:00
11:55 PM,76.1,67.6,75,29.97,10.0,Calm,Calm,-,N/A,,Clear,0,2012-10-07 04:55:00